Location: Newark
(44.3681°N, 100.3364°W)
Time: 12:57:11
(UTC+00:00)

deb Explorer IX - Pass Details

Date: 18 February 2020
Orbit: 547 x 1100 km, 38.8° (Epoch: 03 April)

Event Time Altitude Azimuth Distance (km) Brightness Sun altitude
Rises 18:58:37 0° 231° (SW) 2,721 ? 34.0°
Reaches altitude 10° 19:01:08 10° 219° (SW) 1,810 ? 34.0°
Maximum altitude 19:04:32 26° 162° (SSE) 1,109 ? 34.0°
Drops below altitude 10° 19:08:01 10° 105° (ESE) 1,850 ? 33.9°
Sets 19:10:37 0° 93° (E) 2,796 ? 33.9°
